Hourly Data Report for October 17, 2014

All times are specified in Local Standard Time (LST). Add 1 hour to adjust for Daylight Saving Time where and when it is observed.

GJOA HAVEN A
NUNAVUT

68°38'08.000" N
95°51'01.000" W
46.90 m
2302337
71597
YHK

Download Data

Hourly Data (October 2014)
Hourly Data Report for October 17, 2014
Temp Definition
°C
Dew Point Temp Definition
°C
Rel Hum Definition
%
Wind Dir Definition
10's deg

Wind Spd Definition
km/h
Visibility Definition
km
Stn Press Definition
kPa
Hmdx Definition


Wind Chill Definition


Weather Definition


TIME
00:00 Legend Double Dagger -10.4 -11.3 93 30 32 16.1 102.09   -20 LegendNANA
01:00 Legend Double Dagger -9.8 -10.5 95 29 34 6.4 102.13   -20 Snow
02:00 Legend Double Dagger -8.8 -9.3 96 29 17 16.1 102.15   -16 LegendNANA
03:00 Legend Double Dagger -9.3 -9.6 98 30 15 6.4 102.15   -16 Fog
04:00 Legend Double Dagger -9.0 -9.3 98 28 9 16.1 102.15   -14 LegendNANA
05:00 Legend Double Dagger -8.8 -9.2 97 30 9 16.1 102.15   -13 LegendNANA
06:00 Legend Double Dagger -8.5 -8.9 97 26 9 12.9 102.14   -13 LegendNANA
07:00 Legend Double Dagger -8.2 -8.5 98 27 5 16.1 102.14   -11 LegendNANA
08:00 Legend Double Dagger -7.1 -7.3 98 21 5 4.0 102.10   -10 Snow
09:00 Legend Double Dagger -6.3 -7.0 95 26 21 16.1 102.10   -13 LegendNANA
10:00 Legend Double Dagger -6.3 -7.5 91 24 26 16.1 102.08   -14 LegendNANA
11:00 Legend Double Dagger -6.2 -7.6 90 25 26 16.1 102.06   -14 LegendNANA
12:00 Legend Double Dagger -6.4 -7.8 90 24 26 16.1 102.04   -14 LegendNANA
13:00 Legend Double Dagger -6.5 -7.6 92 23 26 16.1 102.02   -14 LegendNANA
14:00 Legend Double Dagger -6.3 -7.5 91 23 24 16.1 101.99   -14 LegendNANA
15:00 Legend Double Dagger -6.2 -7.3 92 22 30 16.1 101.95   -15 LegendNANA
16:00 Legend Double Dagger -6.6 -7.6 93 21 26 16.1 101.93   -15 LegendNANA
17:00 Legend Double Dagger -7.1 -7.6 96 21 24 16.1 101.89   -15 LegendNANA
18:00 Legend Double Dagger -7.6 -8.0 97 21 35 16.1 101.84   -17 LegendNANA
19:00 Legend Double Dagger -8.6 -9.2 95 21 35 16.1 101.77   -18 LegendNANA
20:00 Legend Double Dagger -8.2 -8.5 98 21 35 14.5 101.71   -18 LegendNANA
21:00 Legend Double Dagger -8.5 -9.0 96 22 30 16.1 101.67   -18 LegendNANA
22:00 Legend Double Dagger -8.7 -8.9 98 20 30 1.2 101.63   -18 Snow
23:00 Legend Double Dagger -8.0 -8.4 97 21 28 16.1 101.56   -17 LegendNANA

Notes on Data Quality.

Legend

  • E = Estimated
  • M = Missing
  • NA = Not Available
  • ‡ = Partner data that is not subject to review by the National Climate Archives
Date modified: